Home   Weather   Al Ain   Past weeks

Flag for United Arab Emirates Past Weather in Al Ain, Abu Dhabi, United Arab Emirates — Yesterday and Last 2 Weeks

Now
86 °F

Sunny.


Feels Like: 89 °F
Forecast: 81 / 108 °F
Wind: 10 mph from Southeast

Location: Al Ain International Airport

Current Time: Aug 21, 2017 at 6:47:48 am

Latest Report: Aug 21, 2017 at 6:00 am


Visibility: 10 mi

Pressure: 29.59 "Hg

Humidity: 55%

Dew Point: 68 °F

Location of Al AinLocation

Past Weather in Al Ain — Graph

°F

Al Ain Temperature Yesterday

Maximum temperature yesterday: 113 °F (at 2:00 pm)
Minimum temperature yesterday: 88 °F (at 3:00 am)
Average temperature yesterday: 100 °F

High & Low Weather Summary for the Past Weeks

 TemperatureHumidityPressure
High115 °F (Aug 7, 2:00 pm)79% (Aug 16, 7:00 am)29.74 "Hg (Aug 16, 7:00 am)
Low79 °F (Aug 16, 7:00 am)9% (Aug 20, 2:00 pm)29.45 "Hg (Aug 6, 5:00 pm)
Average100 °F30%29.58 "Hg
* Reported Aug 6 5:00 am — Aug 21 5:00 am, Al Ain. Weather by CustomWeather, © 2017

Note: Actual official high and low records may vary slightly from our data, if they occured in-between our weather recording intervals... More about our weather records

Advertising

Al Ain Weather History for the Previous 24 Hours

Scroll right to see more
 ConditionsComfort  
Time TempWeatherWind HumidityBarometerVisibility
5:00 am
Mon, Aug 21
88 °FClear.7 mph52%29.59 "Hg10 mi
3:00 am91 °FClear.12 mph44%29.59 "Hg4 mi
2:00 am95 °FClear.15 mph32%29.59 "Hg4 mi
1:00 am99 °FPassing clouds.8 mph18%29.59 "HgN/A
12:00 am99 °FClear.8 mph17%29.59 "Hg10 mi
11:00 pm
Sun, Aug 20
97 °FClear.6 mph17%29.59 "Hg10 mi
10:00 pm100 °FClear.7 mph14%29.59 "Hg10 mi
9:00 pm102 °FClear.7 mph14%29.59 "Hg10 mi
8:00 pm104 °FClear.9 mph12%29.56 "Hg10 mi
7:00 pm108 °FClear.14 mph11%29.56 "Hg10 mi
6:00 pm109 °FPassing clouds.13 mph12%29.53 "HgN/A
5:00 pm111 °FSunny.10 mph11%29.53 "Hg10 mi
4:00 pm111 °FSunny.16 mph10%29.53 "Hg10 mi
3:00 pm113 °FSunny.15 mph10%29.53 "Hg10 mi
2:00 pm113 °FPassing clouds.14 mph9%29.53 "HgN/A
1:00 pm111 °FPassing clouds.13 mph12%29.56 "HgN/A
12:00 pm108 °FPassing clouds.7 mph20%29.59 "HgN/A
11:00 am104 °FPassing clouds.9 mph26%29.62 "HgN/A
10:00 am100 °FSunny.15 mph33%29.65 "Hg10 mi
9:00 am97 °FSunny.13 mph37%29.65 "Hg10 mi
8:00 am93 °FSunny.10 mph41%29.65 "Hg10 mi
7:00 am90 °FSunny.10 mph49%29.65 "Hg10 mi
6:00 am90 °FSunny.9 mph46%29.62 "Hg10 mi
Weather by CustomWeather, © 2017

See weather overviewHow to use our weather pages